| time (UTC) | temp C | wind direction | speed KPH | gust KPH | rain 1hr cm | rain 24hr cm | rain mn cm | humidity % | barometer mb |
| 20260505030057 | 25 | 248 | 1.6 | 4.8 | 0.00 | 0.00 | 0.00 | 22 | 992.6 |
| 20260505024609 | 25 | 184 | 3.2 | 6.4 | 0.00 | 0.00 | 0.00 | 21 | 992.3 |
| 20260505023056 | 26 | 184 | 1.6 | 6.4 | 0.00 | 0.00 | 0.00 | 20 | 992.3 |
| 20260505021611 | 26 | 206 | 1.6 | 4.8 | 0.00 | 0.00 | 0.00 | 20 | 992.3 |
| 20260505020054 | 26 | 209 | 1.6 | 6.4 | 0.00 | 0.00 | 0.00 | 20 | 992.1 |
| 20260505014554 | 27 | 228 | 1.6 | 4.8 | 0.00 | 0.00 | 0.00 | 19 | 992.1 |
| 20260505013054 | 27 | 244 | 1.6 | 4.8 | 0.00 | 0.00 | 0.00 | 18 | 992.1 |
| 20260505011557 | 28 | 225 | 3.2 | 9.7 | 0.00 | 0.00 | 0.00 | 18 | 991.9 |
| 20260505010052 | 29 | 269 | 4.8 | 11.3 | 0.00 | 0.00 | 0.00 | 17 | 991.9 |
| 20260505004551 | 29 | 285 | 8.0 | 16.1 | 0.00 | 0.00 | 0.00 | 16 | 992.1 |
| 20260505003049 | 30 | 271 | 8.0 | 19.3 | 0.00 | 0.00 | 0.00 | 16 | 992.1 |
| 20260505001548 | 30 | 264 | 12.9 | 25.7 | 0.00 | 0.00 | 0.00 | 16 | 992.3 |
| 20260505000046 | 30 | 260 | 14.5 | 25.7 | 0.00 | 0.00 | 0.00 | 15 | 992.4 |
| 20260504234543 | 30 | 246 | 20.9 | 32.2 | 0.00 | 0.00 | 0.00 | 15 | 992.7 |
| 20260504233056 | 30 | 300 | 17.7 | 32.2 | 0.00 | 0.00 | 0.00 | 15 | 992.7 |
| 20260504231542 | 30 | 257 | 16.1 | 32.2 | 0.00 | 0.00 | 0.00 | 15 | 992.7 |
| 20260504230043 | 31 | 270 | 20.9 | 37.0 | 0.00 | 0.00 | 0.00 | 15 | 992.9 |
| 20260504224540 | 31 | 260 | 20.9 | 41.8 | 0.00 | 0.00 | 0.00 | 14 | 993.1 |
| 20260504223041 | 31 | 259 | 22.5 | 33.8 | 0.00 | 0.00 | 0.00 | 14 | 992.9 |
| 20260504221545 | 31 | 273 | 24.1 | 35.4 | 0.00 | 0.00 | 0.00 | 13 | 993.0 |
| 20260504220051 | 31 | 261 | 16.1 | 37.0 | 0.00 | 0.00 | 0.00 | 14 | 993.2 |
| 20260504214537 | 31 | 265 | 14.5 | 32.2 | 0.00 | 0.00 | 0.00 | 15 | 993.2 |
| 20260504213034 | 31 | 250 | 17.7 | 41.8 | 0.00 | 0.00 | 0.00 | 15 | 993.5 |
| 20260504211532 | 31 | 292 | 17.7 | 30.6 | 0.00 | 0.00 | 0.00 | 16 | 993.3 |
| 20260504210031 | 32 | 306 | 22.5 | 41.8 | 0.00 | 0.00 | 0.00 | 15 | 993.7 |
| 20260504204541 | 32 | 246 | 9.7 | 32.2 | 0.00 | 0.00 | 0.00 | 16 | 993.8 |
| 20260504203027 | 32 | 221 | 14.5 | 30.6 | 0.00 | 0.00 | 0.00 | 15 | 994.0 |
| 20260504201524 | 32 | 215 | 17.7 | 27.4 | 0.00 | 0.00 | 0.00 | 15 | 994.3 |
| 20260504200023 | 32 | 257 | 12.9 | 20.9 | 0.00 | 0.00 | 0.00 | 16 | 994.6 |
| 20260504194519 | 32 | 279 | 11.3 | 25.7 | 0.00 | 0.00 | 0.00 | 16 | 995.0 |
| 20260504193016 | 31 | 259 | 6.4 | 30.6 | 0.00 | 0.00 | 0.00 | 14 | 995.4 |
| 20260504191515 | 31 | 286 | 8.0 | 25.7 | 0.00 | 0.00 | 0.00 | 13 | 995.6 |
| 20260504190011 | 31 | 202 | 6.4 | 17.7 | 0.00 | 0.00 | 0.00 | 15 | 995.8 |
| 20260504184513 | 30 | 260 | 11.3 | 22.5 | 0.00 | 0.00 | 0.00 | 15 | 996.0 |
| 20260504183004 | 30 | 284 | 9.7 | 24.1 | 0.00 | 0.00 | 0.00 | 17 | 996.4 |
| 20260504181609 | 30 | 298 | 14.5 | 25.7 | 0.00 | 0.00 | 0.00 | 17 | 996.6 |
| 20260504180056 | 28 | 317 | 11.3 | 22.5 | 0.00 | 0.00 | 0.00 | 18 | 997.0 |
| 20260504174553 | 28 | 323 | 8.0 | 25.7 | 0.00 | 0.00 | 0.00 | 19 | 997.2 |
| 20260504173050 | 27 | 296 | 11.3 | 24.1 | 0.00 | 0.00 | 0.00 | 21 | 997.5 |
| 20260504171546 | 27 | 287 | 9.7 | 17.7 | 0.00 | 0.00 | 0.00 | 23 | 997.6 |
| 20260504081541 | 17 | 201 | 9.7 | 30.6 | 0.00 | 0.00 | 0.00 | 46 | 1000.6 |
| 20260504044543 | 20 | 244 | 14.5 | 29.0 | 0.00 | 0.00 | 0.00 | 37 | 1002.4 |
| 20260504043046 | 21 | 171 | 12.9 | 29.0 | 0.00 | 0.00 | 0.00 | 36 | 1002.7 |
| 20260504041542 | 21 | 229 | 11.3 | 33.8 | 0.00 | 0.00 | 0.00 | 35 | 1002.8 |
| 20260504040042 | 21 | 253 | 14.5 | 29.0 | 0.00 | 0.00 | 0.00 | 34 | 1002.9 |
| 20260504034541 | 21 | 210 | 14.5 | 30.6 | 0.00 | 0.00 | 0.00 | 33 | 1002.9 |
| 20260504033040 | 22 | 175 | 14.5 | 25.7 | 0.00 | 0.00 | 0.00 | 33 | 1003.0 |
| 20260504031540 | 22 | 213 | 9.7 | 27.4 | 0.00 | 0.00 | 0.00 | 32 | 1002.9 |